Flag for Canada Weather past 2 weeks in Welland, Ontario, Canada

Now
71 °F

Mild.


Feels Like: 68 °F
Forecast: 63 / 81 °F
Wind: 10 mph from West

Location: Port Colborne Airport

Current Time: Sep 1, 2015 at 2:26:37 AM

Latest Report: Sep 1, 2015 at 2:00 AM


Visibility: N/A

Pressure: 30.06 "Hg

Humidity: 92%

Dew point: 69 °F

Location of WellandLocation

Historic Weather in Welland — Graph

°F

Welland temperature yesterday

Maximum temperature yesterday: 73 °F (at 5:00 PM)
Minimum temperature yesterday: 71 °F (at 11:00 AM)
Average temperature yesterday: 72 °F

Past Weeks' High & Low Weather Summary

 TemperatureHumidityPressure
High85 °F (Aug 19, 6:00 PM)96% (Aug 17, 10:00 PM)30.23 "Hg (Aug 17, 10:00 PM)
Low58 °F (Aug 27, 3:00 AM)40% (Aug 23, 6:00 PM)29.75 "Hg (Aug 20, 6:00 AM)
Average69 °F72%30.02 "Hg
* Reported Aug 17 1:00 AM — Sep 1 1:00 AM, Welland, Weather by CustomWeather, © 2015

Note: Actual official high and low records may vary slightly from our data, if they occured in-between our weather recording intervals... More about our weather records

Advertising

Welland weather history for previous 24 hours

 ConditionsComfort  
Time TempWeatherWind HumidityBarometerVisibility
1:00 AM
Tue, Sep 1
72 °FMild.12 mph92%30.05 "HgN/A
12:00 AM72 °FMild.10 mph92%30.05 "HgN/A
11:00 PM
Mon, Aug 31
72 °FMild.10 mph91%30.05 "HgN/A
10:00 PM72 °FMild.12 mph90%30.04 "HgN/A
9:00 PM72 °FMild.9 mph89%30.03 "HgN/A
8:00 PM73 °FMild.13 mph87%30.03 "HgN/A
7:00 PM73 °FMild.14 mph87%30.03 "HgN/A
6:00 PM73 °FMild.17 mph86%30.03 "HgN/A
5:00 PM73 °FMild.17 mph86%30.03 "HgN/A
4:00 PM73 °FMild.16 mph88%30.03 "HgN/A
3:00 PM72 °FMild.15 mph90%30.04 "HgN/A
2:00 PM72 °FMild.17 mph90%30.05 "HgN/A
1:00 PM72 °FMild.15 mph84%30.06 "HgN/A
12:00 PM72 °FMild.14 mph89%30.07 "HgN/A
11:00 AM71 °FMild.14 mph90%30.07 "HgN/A
10:00 AM72 °FMild.13 mph89%30.06 "HgN/A
9:00 AM72 °FMild.13 mph85%30.05 "HgN/A
8:00 AM72 °FMild.14 mph90%30.04 "HgN/A
7:00 AM72 °FMild.10 mph89%30.03 "HgN/A
6:00 AM72 °FMild.10 mph87%30.01 "HgN/A
5:00 AM72 °FMild.6 mph90%30.02 "HgN/A
4:00 AM72 °FMild.6 mph89%30.02 "HgN/A
3:00 AM72 °FMild.7 mph88%30.02 "HgN/A
2:00 AM72 °FMild.7 mph85%30.02 "HgN/A
Weather by CustomWeather, © 2015

See weather overviewHow to use our weather pages